Regional Weather Roundup
Issued by NWS Sioux Falls, SD

Home | Current Version | Previous Version | Graphics & Text | Print | Product List | Glossary Off
Versions: 1 2 3 4 5 6 7 8 9 10 11 12 13 14 15 16 17 18 19 20 21 22 23 24 25 26 27 28 29 30 31 32 33 34 35 36 37 38 39 40 41 42 43 44 45 46 47 48 49 50

000
ASUS43 KFSD 291202
RWRFSD

WEATHER ROUNDUP FOR SE SOUTH DAKOTA/SW MINNESOTA/NW IOWA
NATIONAL WEATHER SERVICE SIOUX FALLS SD
700 AM CDT SUN MAR 29 2015

NOTE: "FAIR" INDICATES FEW OR NO CLOUDS BELOW 12,000 FEET WITH NO
SIGNIFICANT WEATHER AND OR OBSTRUCTIONS TO VISIBILITY.


SDZ038>040-050-052>070-291300-
SOUTHEAST SOUTH DAKOTA

CITY           SKY/WX    TMP DP  RH WIND       PRES   REMARKS
CHAMBERLAIN    NOT AVBL
HURON          CLEAR     48  37  65 NW29G40   29.72R
6HR MIN TEMP:  43; 6HR MAX TEMP:  48;

MADISON        FAIR      43  39  87 W21G28    29.70R
MITCHELL       CLEAR     47  35  63 W15       29.77R
6HR MIN TEMP:  43; 6HR MAX TEMP:  51;

SIOUX FALLS    PTCLDY    45  37  73 W13       29.71R
6HR MIN TEMP:  42; 6HR MAX TEMP:  46; 6HR PCP: TRACE;

WINNER         CLOUDY    50  34  54 NW38G54   29.88R
YANKTON        CLEAR     50  36  57 W18       29.79R
$$

MNZ071-072-080-081-089-090-097-098-291300-
SOUTHWEST MINNESOTA

CITY           SKY/WX    TMP DP  RH WIND       PRES   REMARKS
FAIRMONT       PTCLDY    36  30  80 S18G25    29.68S
JACKSON        CLEAR     39  34  81 SW17G24   29.67F
LUVERNE        CLEAR     43  36  75 W18       29.71R
MARSHALL       CLEAR     45  34  65 W22       29.62R
6HR MIN TEMP:  39; 6HR MAX TEMP:  45;

MONTEVIDEO     MOCLDY    45  37  76 NW10      29.59S
PIPESTONE      CLEAR     39  36  87 W16       29.68R
REDWOOD FALLS  PTCLDY    40  34  79 SW16      29.60F
TRACY          CLEAR     40  35  80 SW16G22   29.62F
WINDOM         CLEAR     39  34  81 SW18      29.65F
WORTHINGTON    CLEAR     39  32  75 SW12      29.70R
$$

IAZ001>003-012>014-020>022-031-032-NEZ013-014-SDZ071-291300-
NORTHWEST IOWA

CITY           SKY/WX    TMP DP  RH WIND       PRES   REMARKS
ESTHERVILLE    CLEAR     37  33  85 SW17G28   29.69F
SIOUX CITY     MOCLDY    42  34  73 SW7       29.81R
6HR MIN TEMP:  42; 6HR MAX TEMP:  46; 6HR PCP: TRACE;

SPENCER        PTCLDY    42  35  76 SW21      29.72S
6HR MIN TEMP:  37; 6HR MAX TEMP:  42; 6HR PCP: TRACE;

$$

ABBREVIATIONS USED IN REMARKS
   TC - TEMPERATURE IN CELSIUS
  WCI - WIND CHILL INDEX
   HX - HEAT INDEX
  VSB - VISIBILITY




USA.gov is the U.S. government's official web portal to all federal, state and local government web resources and services.